FW1702 Weather Reports


time (UTC)temp
C
wind
direction
speed
KPH
gust
KPH
rain 1hr
cm
rain 24hr
cm
rain mn
cm
humidity
%
barometer
mb
20210122051727 16 252 0.0 3.2 0.00 0.00 0.00 81 1018.8
20210122050145 16 254 0.0 4.8 0.00 0.00 0.00 82 1019.0
20210122044622 16 250 0.0 4.8 0.00 0.00 0.00 82 1019.0
20210122043102 17 232 0.0 1.6 0.00 0.00 0.00 82 1019.0
20210122041637 17 232 0.0 3.2 0.00 0.00 0.00 82 1019.1
20210122040157 17 232 0.0 6.4 0.00 0.00 0.00 82 1019.0
20210122034705 17 192 0.0 6.4 0.00 0.00 0.00 82 1019.1
20210122033130 18 230 3.2 8.0 0.00 0.00 0.00 83 1019.0
20210122031610 18 221 3.2 6.4 0.00 0.00 0.00 83 1019.1
20210122030226 18 220 3.2 8.0 0.00 0.00 0.00 83 1019.2
20210122024733 18 212 3.2 6.4 0.00 0.00 0.00 83 1019.3
20210122023109 18 157 0.0 4.8 0.00 0.00 0.00 82 1019.1
20210122021633 18 157 0.0 4.8 0.00 0.00 0.00 81 1019.1
20210122020131 18 157 0.0 3.2 0.00 0.00 0.00 80 1019.0
20210122014722 18 157 0.0 4.8 0.00 0.00 0.00 80 1019.1
20210122013056 18 157 0.0 4.8 0.00 0.00 0.00 78 1019.1
20210122011655 19 157 0.0 1.6 0.00 0.00 0.00 77 1019.1
20210122010120 19 157 0.0 0.0 0.00 0.00 0.00 77 1019.0
20210122004610 20 157 0.0 3.2 0.00 0.00 0.00 77 1018.9
20210122003131 20 157 0.0 4.8 0.00 0.00 0.00 77 1019.0
20210122001604 20 157 0.0 4.8 0.00 0.00 0.00 76 1018.9
20210122000137 20 157 0.0 4.8 0.00 0.00 0.00 76 1019.0
20210121234746 21 157 1.6 8.0 0.00 0.00 0.00 76 1018.9
20210121233117 21 150 1.6 4.8 0.00 0.00 0.00 75 1018.9
20210121231614 21 164 1.6 4.8 0.00 0.00 0.00 74 1018.9
20210121230058 21 123 1.6 6.4 0.00 0.00 0.00 73 1019.0
20210121224645 22 133 1.6 8.0 0.00 0.00 0.00 72 1019.0
20210121223136 22 167 1.6 6.4 0.00 0.00 0.00 72 1018.9
20210121221606 22 132 1.6 11.3 0.00 0.00 0.00 70 1018.7
20210121220115 22 202 3.2 8.0 0.00 0.00 0.00 69 1018.4
20210121214624 22 139 4.8 12.9 0.00 0.00 0.00 68 1018.3
20210121213124 23 184 4.8 11.3 0.00 0.00 0.00 68 1018.3
20210121211551 23 175 1.6 11.3 0.00 0.00 0.00 66 1018.3
20210121210056 23 113 4.8 12.9 0.00 0.00 0.00 66 1018.2
20210121204625 23 211 6.4 14.5 0.00 0.00 0.00 64 1018.2
20210121203116 24 203 6.4 16.1 0.00 0.00 0.00 61 1018.3
20210121201538 25 173 3.2 14.5 0.00 0.00 0.00 57 1018.3
20210121200142 25 190 1.6 12.9 0.00 0.00 0.00 48 1018.3
20210121194537 25 153 3.2 14.5 0.00 0.00 0.00 57 1018.4
20210121193121 25 205 3.2 11.3 0.00 0.00 0.00 54 1018.5
20210121191617 25 196 3.2 11.3 0.00 0.00 0.00 45 1018.6
20210121190126 25 235 1.6 9.7 0.00 0.00 0.00 42 1018.8
20210121184552 25 217 4.8 12.9 0.00 0.00 0.00 45 1019.0
20210121183053 25 207 4.8 12.9 0.00 0.00 0.00 46 1019.2
20210121181526 25 167 6.4 12.9 0.00 0.00 0.00 46 1019.6
20210121180031 25 182 4.8 12.9 0.00 0.00 0.00 46 1019.9
20210121174604 25 204 1.6 8.0 0.00 0.00 0.00 47 1020.1
20210121173033 24 174 3.2 11.3 0.00 0.00 0.00 48 1020.8
20210121171517 24 225 3.2 9.7 0.00 0.00 0.00 49 1021.0
20210121170035 23 188 3.2 8.0 0.00 0.00 0.00 49 1021.2
20210121164519 23 247 3.2 12.9 0.00 0.00 0.00 49 1021.5
20210121163028 23 275 3.2 8.0 0.00 0.00 0.00 51 1021.8
20210121160001 22 241 1.6 6.4 0.00 0.00 0.00 57 1022.6
20210121154703 22 289 3.2 9.7 0.00 0.00 0.00 56 1022.8
20210121153235 21 346 1.6 12.9 0.00 0.00 0.00 60 1023.2
20210121151805 21 278 3.2 11.3 0.00 0.00 0.00 61 1023.3
20210121150159 20 281 3.2 11.3 0.00 0.00 0.00 63 1023.3
20210121144617 20 271 4.8 9.7 0.00 0.00 0.00 67 1023.3
20210121143211 18 242 3.2 6.4 0.00 0.00 0.00 69 1023.0
20210121141617 17 274 3.2 8.0 0.00 0.00 0.00 72 1022.9
20210121140047 17 257 3.2 8.0 0.00 0.00 0.00 75 1022.8
20210121134625 16 289 1.6 8.0 0.00 0.00 0.00 78 1022.9
20210121133038 15 295 1.6 9.7 0.00 0.00 0.00 82 1022.9
20210121131538 15 291 0.0 6.4 0.00 0.00 0.00 86 1022.7
20210121130119 13 288 0.0 6.4 0.00 0.00 0.00 88 1022.6
20210121124525 12 259 1.6 4.8 0.00 0.00 0.00 90 1022.6
20210121123058 12 252 0.0 1.6 0.00 0.00 0.00 90 1022.3
20210121121542 12 252 0.0 1.6 0.00 0.00 0.00 90 1022.0
20210121120043 12 252 0.0 1.6 0.00 0.00 0.00 90 1021.7
20210121114554 12 252 0.0 3.2 0.00 0.00 0.00 90 1021.9
20210121113028 12 252 0.0 3.2 0.00 0.00 0.00 90 1022.0
20210121111551 12 252 0.0 1.6 0.00 0.00 0.00 90 1021.6
20210121110038 12 252 0.0 3.2 0.00 0.00 0.00 90 1021.6
20210121104527 12 278 0.0 3.2 0.00 0.00 0.00 90 1021.7
20210121103018 12 258 0.0 6.4 0.00 0.00 0.00 90 1021.6
20210121101522 12 294 0.0 3.2 0.00 0.00 0.00 90 1021.4
20210121100030 12 294 0.0 0.0 0.00 0.00 0.00 89 1021.4
20210121094543 12 296 0.0 0.0 0.00 0.00 0.00 89 1021.4
20210121093040 12 296 0.0 0.0 0.00 0.00 0.00 89 1021.5
20210121091532 12 296 0.0 0.0 0.00 0.00 0.00 89 1021.6
20210121090023 12 296 0.0 0.0 0.00 0.00 0.00 89 1021.5
20210121084532 12 296 0.0 0.0 0.00 0.00 0.00 89 1021.8
20210121081525 12 296 0.0 0.0 0.00 0.00 0.00 88 1021.9
20210121080229 12 296 0.0 0.0 0.00 0.00 0.00 88 1022.2
20210121074700 12 296 0.0 0.0 0.00 0.00 0.00 88 1022.2
20210121073134 12 296 0.0 0.0 0.00 0.00 0.00 88 1022.4
20210121071715 12 296 0.0 0.0 0.00 0.00 0.00 88 1022.7
20210121070158 12 296 0.0 0.0 0.00 0.00 0.00 88 1022.8
20210121064642 13 296 0.0 0.0 0.00 0.00 0.00 87 1022.9
20210121063133 13 296 0.0 0.0 0.00 0.00 0.00 87 1023.1
20210121061617 13 296 0.0 0.0 0.00 0.00 0.00 87 1023.0
20210121060116 13 296 0.0 0.0 0.00 0.00 0.00 86 1023.2
20210121054554 13 296 0.0 0.0 0.00 0.00 0.00 86 1023.4
20210121053142 13 296 0.0 0.0 0.00 0.00 0.00 85 1023.5